FENGYUN 2G AKM

基本信息
目录编号:
40369
目录名称:
FENGYUN 2G AKM
国际标识:
2014-090C
轨道中心:
EARTH
物体状态:
在轨
发射日期:
2014-12-31 UTC
国别:
中国 (CN)
轨道信息
数据来源: 国际轨道数据
星历时间: 2026-07-13T06:45:46+0800
半长轴: 42356.044km
偏心率: 0.0046827
轨道倾角: 7.619°
近地点辐角: 172.552°
升交点赤经: 68.296°
平近点角: 187.451°
近地点: 35779.566km
远地点: 36176.248km
周期: 1445.882分钟
每日圈数: 0.995932
详细信息
发射场:
XSC
轨道高度:
MEO
数据来源:
AOE Integration Group
参考系:
TEME
时间系统:
UTC
历元类型:
SGP4
2D轨道图
3D轨道图
轨道高度分析图
轨道倾角分析图
轨道综合分析图
查看轨道综合分析图